sat.trackr.live / text

‹ back to catalog

STARLINK-30255

NORAD 57606 · 2023-119E

PAYLOAD ACTIVE UNKNOWN

§ Identity

Operator
Country
US
Launch date
2023-08-11
Launch site
AFETR
Launch vehicle
Mass (kg)
RCS (m²)

Purposes: comms

External: N2YO · Heavens-Above · Gunter

§ Orbital elements

Epoch: 2026-09-20T21:42:58.288320Z

Period
94.27 min
Inclination
43.0036°
Eccentricity
0.0002277
Mean motion
15.27575782 rev/d
Perigee alt
481.5 km
Apogee alt
484.6 km
Semi-major
6,861.2 km
B*
5.2618e-5
RAAN
58.9731°
Arg perigee
310.3811°
Mean anomaly
49.6842°
Rev number
17,294

§ Raw data

STARLINK-302551 57606U 23119E   26263.90484130  .00001185  00000+0  52618-4 0  99982 57606  43.0036  58.9731 0002277 310.3811  49.6842 15.27575782172945

JSON: /api/v1/satellites/57606 · /tle

For live sub-satellite position, see the globe view (requires WebGL).

§ Visibility from observer

Set your observer location to see the next 7 days of passes ≥ 10°. The values pass through the URL so the page stays shareable.

No JS? Fill the form by hand. The geolocation button needs JavaScript.